{"data":{"norad_id":62559,"epoch":"2026-09-21T16:00:38.599488Z","epoch_age_seconds":70472,"freshness":"FRESH","line1":"1 62559U 25006F   26264.66711342  .00157598  00000+0  12053-2 0  9997","line2":"2 62559  43.0005  38.6899 0002649 261.9692  98.0875 15.70901796 97424","mean_motion":15.70901796,"eccentricity":0.0002649,"inclination_deg":43.0005,"raan_deg":38.6899,"arg_perigee_deg":261.9692,"mean_anomaly_deg":98.0875,"bstar":0.0012053,"rev_number":9742,"period_min":91.667092345727,"perigee_km":354.5344855785,"apogee_km":358.10240007211,"semimajor_km":6734.4554428253,"source":"CELESTRAK","updated_at":"2026-09-22T09:00:49.626917Z"}}